Wind_Speed
15 15 14 14 14 13 12 12 12 12 12 13 13 13 12 12 11 11 10 10 9 9 8 8 8 7 7 7 7 7 7 6 6 6 6 6 7 8 8 8 8 8
16 16 15 14 14 13 13 13 13 13 13 12 12 11 11 11 11 11 11 10 9 9 8 8 8 7 7 7 7 7 7 7 7 7 7 7 7 8 8 8 8 8
17 16 15 15 15 15 15 15 15 14 14 13 12 11 12 11 11 10 10 10 10 9 9 8 8 8 8 8 8 8 8 8 8 8 8 8 8 8 8 9 9 9
18 17 16 16 16 16 16 16 16 15 15 14 14 14 13 12 10 10 9 9 10 10 9 9 9 9 9 9 9 9 9 9 9 9 8 9 9 9 9 9 9 9
21 19 18 17 16 16 16 16 16 15 15 15 16 15 14 13 12 11 10 10 10 10 10 10 10 10 11 10 10 10 10 10 9 9 8 8 9 10 10 10 9 9
23 21 19 18 17 16 16 16 17 16 16 16 16 16 15 14 13 12 12 11 10 10 10 10 11 11 12 12 11 11 11 11 11 10 9 9 8 9 10 11 11 10
25 23 21 20 18 17 17 17 16 16 16 16 16 16 15 15 14 13 13 12 12 11 11 11 11 12 12 12 12 13 13 12 12 12 11 10 9 9 9 10 11 10
27 26 24 22 20 18 18 17 17 17 17 16 16 16 15 15 15 14 13 13 13 13 12 12 12 13 13 13 13 14 14 13 13 12 12 11 11 10 9 10 10 10
29 28 26 23 21 21 20 19 19 18 18 17 17 17 16 15 15 14 14 14 14 13 13 13 13 14 14 13 14 15 15 14 14 13 12 12 11 11 10 10 9 9
30 29 27 25 24 23 23 22 21 20 19 19 19 18 17 16 15 14 14 14 14 14 14 14 14 15 15 15 15 16 16 16 15 14 13 12 12 11 11 10 9 9
30 30 28 27 26 25 25 25 24 23 22 21 21 20 19 18 16 15 15 15 15 15 15 15 15 16 17 16 16 16 17 17 16 15 14 13 12 12 11 11 10 9
32 31 29 28 28 28 28 28 26 25 24 23 23 22 21 20 18 17 16 17 17 16 16 16 16 17 18 18 17 17 17 17 16 15 14 13 12 12 11 10 10 9
32 32 31 31 31 30 30 30 28 27 25 25 24 23 23 21 20 19 18 18 18 17 17 17 17 17 18 19 18 18 18 17 17 16 15 14 13 12 11 10 9 8
33 33 33 33 33 32 32 31 30 28 27 26 26 24 23 22 21 21 20 20 20 19 18 17 17 17 18 20 20 19 19 19 18 17 17 16 14 13 12 11 9 8
34 35 35 35 35 34 33 32 31 30 29 28 26 25 24 23 23 22 21 21 20 20 19 18 17 18 19 20 21 21 21 21 20 19 18 17 16 14 13 12 11 10
36 36 36 37 36 35 34 33 33 32 31 29 28 27 26 25 24 23 22 21 21 20 19 18 18 19 20 21 23 23 23 23 22 21 20 19 17 16 15 13 12 11
37 37 38 38 37 36 35 34 34 34 33 31 30 29 28 27 26 24 23 23 23 22 20 19 19 20 21 22 23 24 25 25 24 23 22 21 19 18 16 15 14 13
38 38 38 38 38 37 37 36 36 36 34 33 32 31 30 29 27 26 25 25 24 23 22 20 20 21 22 22 23 24 26 26 26 25 24 23 21 20 18 17 16 14
38 39 39 38 38 38 38 38 38 37 35 34 34 33 32 31 29 28 27 27 26 25 23 22 23 23 24 23 24 25 26 27 28 27 26 25 24 22 21 19 17 16
36 38 38 38 38 39 39 39 38 37 36 36 36 35 34 33 32 31 30 28 27 27 26 25 24 25 25 25 25 25 26 27 29 29 29 28 26 25 23 22 20 19
36 36 37 38 38 39 39 39 38 37 37 37 37 36 36 36 35 34 32 31 30 29 28 27 26 26 27 26 26 27 27 27 28 29 30 30 29 28 27 25 24 23
37 37 37 38 39 39 38 38 38 37 37 37 38 38 38 38 37 36 35 35 33 32 30 29 29 29 28 28 28 28 28 28 28 29 30 31 32 31 30 29 28 27
39 37 37 38 38 38 38 37 37 37 38 39 39 39 39 38 38 38 38 37 36 35 33 31 32 32 31 30 30 29 29 28 28 29 29 30 32 33 33 32 31 30
39 36 36 36 37 38 37 37 37 37 39 39 39 38 38 38 38 38 38 38 37 36 35 34 34 34 34 32 31 31 30 29 29 29 29 30 31 33 34 34 34 33
37 34 32 33 35 36 37 38 38 38 38 38 38 37 37 37 37 37 36 36 36 36 35 35 36 36 36 35 34 33 31 30 30 29 29 29 31 32 33 34 35 36
38 34 32 32 33 34 36 37 37 37 37 37 36 35 35 35 35 35 34 34 35 35 35 35 36 37 38 37 37 36 34 33 32 30 29 30 31 32 33 34 35 36
Wind_Direction
196 204 208 207 204 198 192 194 199 203 207 207 204 199 193 188 183 177 171 168 167 165 164 165 165 167 168 162 162 165 166 172 181 180 175 174 172 166 162 162 167 176
198 204 207 208 211 207 200 199 201 203 207 209 206 201 197 193 188 180 172 167 167 168 170 172 173 174 172 166 164 167 169 176 184 185 183 182 179 173 168 165 167 177
198 204 206 206 209 210 207 204 203 204 206 206 203 203 202 199 193 185 176 169 169 173 176 178 179 178 176 171 169 170 172 177 182 180 182 187 184 178 174 169 169 176
194 201 206 206 207 210 210 209 209 208 206 205 203 204 203 200 197 191 182 176 176 178 180 182 184 183 180 176 174 174 173 173 173 170 174 182 182 179 176 172 171 175
193 198 203 205 205 208 211 212 212 212 211 210 207 206 204 200 197 192 186 183 184 184 185 186 188 187 184 181 178 177 174 170 166 163 165 171 174 174 174 173 173 175
194 197 202 203 203 204 209 213 214 213 214 215 213 210 208 204 199 193 188 185 187 189 190 191 193 193 188 184 183 181 176 171 166 162 161 163 165 167 168 171 173 174
195 197 201 201 199 200 206 212 214 214 216 218 219 218 214 210 205 197 190 186 186 190 193 195 198 199 194 188 186 185 181 176 171 165 162 160 160 161 162 167 171 174
197 197 201 201 196 196 202 208 212 215 216 217 221 223 220 216 210 202 194 189 188 190 193 197 199 201 200 194 189 188 186 182 176 171 167 163 159 157 158 163 169 173
201 199 200 201 197 195 200 205 207 211 213 215 218 221 222 221 216 207 199 193 191 192 194 198 201 202 204 201 195 191 190 187 182 178 174 169 164 159 157 158 163 170
205 202 201 201 199 197 199 204 206 207 208 211 216 219 220 221 220 213 206 200 195 194 196 200 202 204 207 208 202 197 195 192 188 185 182 177 172 167 162 159 160 164
208 207 204 203 202 201 201 204 206 207 206 208 213 216 218 220 219 215 210 206 201 199 200 202 203 204 208 211 209 204 199 197 194 191 189 186 181 175 170 168 165 165
208 209 208 207 206 205 205 206 207 207 207 208 210 213 216 218 218 215 211 210 207 204 205 206 206 206 208 211 213 210 205 202 200 197 194 192 189 185 180 176 174 174
208 209 210 210 209 208 208 208 208 208 208 209 211 213 215 217 218 216 213 213 212 209 208 210 210 209 210 211 213 214 211 207 204 202 199 197 195 192 189 186 183 183
209 209 210 212 212 211 210 209 210 210 210 211 212 213 216 218 220 219 217 216 216 213 211 212 213 212 212 212 213 214 214 213 209 206 203 202 200 196 193 192 192 193
209 210 211 212 213 213 212 211 211 212 213 213 214 214 216 218 220 222 222 222 221 219 215 213 213 214 214 213 213 214 215 215 214 210 208 206 204 202 199 198 198 201
210 211 211 213 214 214 214 212 212 212 213 214 215 215 216 218 220 221 223 225 227 225 221 215 213 215 216 215 214 215 216 217 216 214 212 210 208 206 206 205 205 208
212 212 212 213 214 214 215 214 213 214 214 214 215 216 218 219 221 221 222 225 228 229 225 219 216 217 218 218 216 216 217 218 218 217 215 213 212 211 211 211 212 213
214 215 215 214 214 215 215 215 215 215 215 215 215 217 219 221 222 222 222 224 227 230 229 223 219 219 221 221 219 218 218 219 219 219 219 218 216 216 216 218 219 220
216 217 217 216 216 216 216 216 216 216 216 216 216 217 220 222 223 223 224 225 227 230 230 227 222 222 222 223 222 222 221 220 220 220 220 220 220 220 221 222 224 226
222 221 220 219 219 219 219 218 218 217 217 217 217 218 220 222 224 225 225 226 227 229 230 230 227 226 225 224 225 225 225 223 222 221 221 221 222 223 224 225 227 228
224 223 222 222 222 221 220 220 219 218 218 218 218 220 221 222 224 225 226 227 227 228 229 231 231 230 229 228 227 228 229 228 226 224 222 222 223 224 226 228 230 231
221 221 221 222 224 224 223 222 221 220 219 219 219 220 221 222 224 225 226 227 227 228 229 230 231 233 233 232 231 231 231 232 230 228 225 224 224 225 227 230 232 234
217 219 220 221 224 226 225 224 223 221 220 220 220 220 221 223 224 225 226 227 228 228 229 229 231 233 235 235 234 234 234 234 233 231 229 227 226 226 228 230 234 236
217 217 217 220 224 226 226 226 225 224 223 223 222 221 222 223 225 226 227 228 230 230 230 230 232 234 236 237 237 238 238 237 235 234 232 231 229 229 230 232 234 237
223 222 219 219 222 225 226 227 227 227 227 227 226 225 225 226 227 228 229 230 232 232 232 232 233 235 238 239 240 240 240 239 238 237 235 234 233 232 233 234 235 238
226 225 222 220 221 224 226 227 229 230 231 232 231 230 230 230 231 231 232 233 233 234 235 234 234 236 238 239 240 241 241 241 240 239 237 236 235 235 235 236 237 239
Height
5942 5943 5944 5945 5946 5947 5948 5950 5951 5952 5952 5953 5954 5954 5955 5955 5955 5956 5956 5957 5957 5958 5958 5958 5958 5959 5959 5959 5960 5960 5960 5961 5961 5961 5961 5962 5963 5963 5963 5964 5964 5965
5941 5942 5943 5945 5946 5947 5948 5949 5950 5951 5952 5953 5954 5955 5955 5955 5956 5956 5956 5957 5957 5957 5957 5958 5958 5958 5959 5959 5959 5960 5960 5960 5961 5961 5961 5961 5962 5963 5963 5963 5964 5964
5940 5941 5942 5944 5945 5946 5947 5948 5949 5950 5951 5952 5953 5954 5955 5955 5956 5956 5957 5957 5957 5958 5957 5957 5958 5958 5958 5959 5959 5959 5960 5960 5961 5961 5961 5961 5962 5962 5963 5963 5963 5964
5938 5940 5941 5942 5943 5945 5946 5947 5949 5950 5951 5952 5952 5953 5954 5955 5956 5956 5957 5957 5958 5958 5958 5957 5957 5958 5958 5958 5959 5959 5960 5960 5960 5960 5960 5961 5961 5962 5962 5963 5963 5964
5936 5938 5939 5941 5942 5944 5945 5947 5948 5949 5950 5951 5951 5952 5953 5953 5954 5955 5956 5957 5958 5958 5958 5957 5957 5957 5958 5958 5958 5959 5959 5960 5960 5960 5960 5960 5961 5961 5962 5962 5963 5963
5935 5937 5938 5940 5941 5943 5944 5946 5947 5948 5949 5950 5951 5952 5952 5952 5953 5954 5955 5956 5957 5958 5958 5958 5957 5957 5957 5958 5958 5959 5959 5960 5960 5960 5960 5960 5960 5961 5961 5962 5962 5963
5933 5935 5936 5938 5940 5941 5943 5944 5946 5947 5948 5949 5950 5951 5952 5952 5953 5953 5954 5955 5956 5957 5957 5957 5957 5957 5957 5958 5958 5958 5959 5959 5960 5960 5960 5960 5960 5960 5961 5961 5962 5963
5931 5933 5934 5936 5938 5940 5941 5942 5944 5945 5947 5948 5949 5950 5951 5951 5952 5953 5953 5954 5955 5956 5956 5957 5957 5957 5957 5957 5958 5958 5958 5959 5959 5960 5960 5960 5960 5961 5961 5961 5962 5963
5929 5931 5932 5934 5936 5938 5939 5940 5941 5943 5944 5946 5947 5948 5950 5950 5951 5952 5953 5953 5954 5954 5955 5956 5956 5956 5957 5957 5957 5957 5958 5958 5959 5959 5960 5960 5960 5961 5961 5962 5962 5963
5927 5929 5931 5932 5934 5935 5936 5937 5939 5940 5942 5944 5945 5946 5948 5949 5950 5951 5952 5953 5953 5953 5954 5954 5955 5955 5956 5956 5956 5957 5957 5958 5958 5959 5959 5960 5960 5961 5961 5962 5962 5963
5925 5927 5929 5931 5932 5933 5934 5935 5936 5938 5939 5941 5942 5944 5946 5947 5948 5949 5951 5951 5952 5952 5952 5953 5953 5954 5954 5955 5956 5956 5957 5957 5958 5958 5959 5959 5960 5961 5961 5962 5962 5963
5922 5924 5926 5928 5929 5930 5931 5932 5934 5935 5937 5939 5940 5942 5943 5944 5946 5947 5948 5949 5950 5951 5951 5951 5952 5952 5953 5954 5955 5956 5957 5957 5958 5958 5958 5959 5959 5960 5961 5962 5962 5963
5919 5921 5923 5924 5925 5927 5928 5930 5931 5933 5935 5936 5938 5939 5941 5942 5943 5945 5946 5947 5948 5949 5950 5950 5951 5951 5952 5953 5954 5955 5956 5957 5957 5958 5958 5959 5959 5960 5960 5961 5962 5963
5916 5918 5919 5920 5922 5923 5925 5927 5929 5931 5932 5934 5935 5937 5939 5941 5942 5943 5944 5945 5946 5947 5948 5948 5949 5950 5951 5951 5952 5953 5955 5956 5956 5957 5958 5958 5959 5959 5960 5961 5961 5962
5912 5914 5915 5917 5918 5920 5922 5924 5926 5928 5929 5931 5933 5935 5937 5939 5940 5941 5942 5943 5944 5945 5946 5947 5948 5948 5949 5950 5951 5952 5953 5954 5955 5956 5957 5957 5958 5959 5959 5960 5960 5961
5908 5910 5911 5913 5915 5917 5919 5921 5923 5924 5926 5928 5930 5932 5934 5936 5938 5939 5941 5942 5942 5943 5944 5945 5946 5947 5947 5948 5949 5950 5951 5952 5953 5955 5955 5956 5957 5958 5958 5959 5959 5960
5904 5906 5908 5909 5911 5913 5915 5917 5919 5921 5923 5925 5927 5929 5931 5933 5934 5936 5938 5939 5940 5941 5942 5944 5945 5945 5946 5946 5947 5948 5949 5950 5952 5953 5954 5955 5956 5957 5957 5958 5958 5959
5900 5902 5904 5906 5908 5910 5911 5913 5915 5917 5919 5921 5924 5926 5927 5929 5931 5933 5935 5936 5937 5938 5940 5942 5943 5943 5944 5945 5946 5947 5947 5948 5949 5951 5952 5953 5954 5955 5956 5956 5957 5957
5897 5899 5901 5903 5905 5906 5907 5909 5910 5913 5915 5918 5920 5922 5923 5925 5928 5929 5931 5932 5934 5936 5937 5939 5940 5941 5942 5943 5944 5944 5945 5946 5947 5948 5950 5951 5952 5953 5954 5955 5955 5956
5896 5897 5899 5901 5902 5903 5904 5905 5907 5909 5911 5914 5916 5918 5920 5922 5924 5926 5928 5929 5931 5932 5934 5936 5937 5939 5939 5940 5941 5942 5943 5944 5945 5946 5947 5948 5950 5951 5952 5953 5953 5954
5892 5894 5897 5898 5899 5900 5900 5902 5904 5906 5907 5909 5911 5913 5916 5918 5919 5922 5924 5926 5927 5929 5931 5933 5934 5935 5936 5937 5938 5939 5940 5941 5942 5943 5945 5946 5947 5949 5950 5951 5951 5952
5885 5888 5891 5893 5895 5896 5898 5900 5901 5903 5904 5905 5907 5909 5911 5913 5915 5917 5920 5921 5923 5925 5927 5929 5931 5931 5933 5934 5935 5936 5937 5938 5940 5941 5942 5943 5945 5946 5947 5948 5948 5949
5878 5882 5885 5888 5890 5893 5895 5897 5899 5900 5900 5901 5903 5905 5907 5909 5911 5913 5915 5917 5919 5921 5924 5926 5927 5928 5929 5930 5931 5932 5934 5935 5937 5938 5939 5941 5942 5942 5944 5945 5945 5946
5877 5878 5880 5882 5886 5890 5893 5895 5896 5897 5897 5898 5900 5902 5903 5905 5907 5909 5911 5914 5916 5918 5920 5922 5923 5924 5925 5927 5928 5929 5931 5932 5934 5935 5936 5938 5939 5940 5941 5942 5942 5943
5879 5879 5879 5880 5883 5887 5889 5891 5893 5895 5895 5896 5898 5900 5901 5902 5904 5907 5909 5911 5913 5915 5917 5919 5920 5920 5922 5924 5925 5926 5927 5929 5930 5932 5934 5935 5936 5937 5938 5938 5939 5940
5877 5878 5878 5878 5880 5883 5886 5888 5890 5892 5893 5895 5897 5898 5899 5900 5902 5904 5907 5908 5910 5912 5914 5915 5917 5917 5918 5920 5921 5922 5924 5925 5927 5929 5931 5932 5933 5933 5934 5935 5936 5936